Regional Weather Roundup
Issued by NWS

Home | Current Version | Previous Version | Graphics & Text | Print | Product List | Glossary On
Versions: 1 2 3 4 5 6 7 8 9 10 11 12 13 14 15 16 17 18 19 20 21 22 23 24 25 26 27 28 29 30 31 32 33 34 35 36 37 38 39 40 41 42 43 44 45 46 47 48 49 50
000
ASUS45 KTFX 010704
RWRMT
MONTANA HOURLY WEATHER ROUNDUP
NATIONAL WEATHER SERVICE GREAT FALLS MT
1204 AM MST SUN MAR 1 2015

NOTE: "FAIR" INDICATES FEW OR NO CLOUDS BELOW 12000 FEET WITH NO
SIGNIFICANT WEATHER AND/OR OBSTRUCTIONS TO VISIBILITY.

* THESE STATIONS ARE NOT UNDER NWS QUALITY CONTROL. THEY DO NOT
   REPORT WEATHER SUCH AS PRECIPITATION OR FOG.

MTZ001>007-043-010800-
WEST OF THE DIVIDE
CITY           SKY/WX    TMP DP  RH WIND       PRES   REMARKS
KALISPELL      CLEAR     14   9  80 CALM      30.23R
MISSOULA       CLEAR     18   9  68 CALM      30.25R
BUTTE          CLEAR      7   1  76 SE6       30.16R WCI  -4
MULLAN PASS    CLEAR     16  -4  40 SE9       30.07R WCI   5
* ANACONDA     CLEAR      7   0  73 SW7        N/A   WCI  -5
* ESSEX        N/A       14   4  64 S6         N/A   WCI   5
* LINCOLN      N/A        4  -2  76 N/A        N/A
* LOOKOUT PASS N/A       15   1  54 S1         N/A
* POLSON       N/A       18   1  47 S2         N/A
* RONAN APT    CLEAR     19  12  74 N/A        N/A
* SEELEY LAKE  N/A        3  -3  76 NE1        N/A
* THOMP F APT  CLEAR     14  -1  51 N6G20      N/A   WCI   5
$$

MTZ008-052>055-010800-
SOUTHWEST MONTANA
CITY           SKY/WX    TMP DP  RH WIND       PRES   REMARKS
BOZEMAN        CLEAR     14   1  56 SW6       30.21R WCI   5
DILLON         CLEAR     10  -2  58 NE6       30.16R
* W YELLOWSTON PTCLDY   N/A N/A N/A N/A        N/A
* THREE FORKS  CLEAR      9   0  66 N/A        N/A
* BOULDER HILL N/A        5  -6  60 S2         N/A
* MONIDA PASS  N/A        8   3  80 NW17       N/A   WCI -10
* RAYNOLDS PAS N/A        5   4  96 N11        N/A   WCI -10
* WHITEHALL    N/A       11  -9  40 NW4        N/A
* WISE RIVER   N/A        8  -3  60 S5G12      N/A   WCI  -1
$$

MTZ009>010-012-014-046-048-049-054-010800-
EAST SLOPES AND CENTRAL MONTANA
CITY           SKY/WX    TMP DP  RH WIND       PRES   REMARKS
CUT BANK       CLOUDY    12   9  88 NW8       30.21R
GREAT FALLS    CLEAR     10   7  88 SW9       30.22R WCI  -3
* EAST GLACIER N/A        7   2  80 NW6        N/A   WCI  -4
* MONARCH      N/A        5  -2  72 W4         N/A
* PENDROY      N/A       18  13  81 NW9        N/A   WCI   7
* ROGERS PASS  N/A        8   4  84 NW1        N/A
* SWEET GRASS  N/A       18  17  96 NW9        N/A   WCI   7
$$

MTZ011-013-016-021-035-040-045-047-050-051-010800-
NORTH CENTRAL MONTANA
CITY           SKY/WX    TMP DP  RH WIND       PRES   REMARKS
HAVRE          CLOUDY    18  12  77 W8        30.22R WCI   8
LEWISTOWN      CLOUDY    18   7  62 W9        30.15S WCI   7
* N BAR RANCH  MOCLDY    14   5  67 NW12G18   30.12S
* CHESTER      N/A       16  10  77 W5G10      N/A   WCI   8
* DENTON       N/A       15   5  64 W17G22     N/A   WCI  -1
* GEYSER       N/A       13   4  67 W16        N/A   WCI  -3
* JUDITH GAP   N/A        3   0  87 N/A        N/A
* LOMA         N/A       16   9  74 SW9        N/A   WCI   5
$$

MTZ017>020-022>027-061-062-010800-
NORTHEAST MONTANA
CITY           SKY/WX    TMP DP  RH WIND       PRES   REMARKS
GLASGOW        LGT SNOW  18  14  84 W9        30.16S VSB 3    WCI   7
GLENDIVE       CLOUDY    14   7  73 W7        30.16S WCI   4
JORDAN         CLEAR     14  10  84 W8        30.16F WCI   3
SIDNEY         MOCLDY    12   9  88 E3        30.18S
WOLF POINT     CLOUDY    19  12  74 W8        30.17S WCI   9
* BEAVER HILL  N/A       12   4  70 SW12       N/A   WCI  -2
* CIRCLE       N/A       18  13  81 W8G13      N/A   WCI   8
* LINDSAY DVD  N/A       15   9  77 W17        N/A   WCI  -1
* NAVAJO       N/A       15  11  84 W13        N/A   WCI   1
* SACO         N/A       19  15  84 W5         N/A   WCI  12
$$

MTZ028>042-056>058-010800-
SOUTHCENTRAL AND SOUTHEAST MONTANA
CITY           SKY/WX    TMP DP  RH WIND       PRES   REMARKS
BAKER          PTCLDY     9   3  76 W6        30.15F WCI  -1
BILLINGS       FAIR      12   7  80 NW7       30.19R WCI   1
LIVINGSTON     PTCLDY    16   0  49 W10       30.17R WCI   4
MILES CITY     PTCLDY    16   9  74 W7        30.20S WCI   6
* LAUREL APT   CLEAR     12   0  58 W7         N/A   WCI   1
* ROUNDUP APT  CLEAR     12   1  61 N/A        N/A
* ALZADA       N/A       11   6  80 W4         N/A
* HYSHAM       N/A       15   6  67 W1         N/A
* LAME DEER    N/A       11   7  84 W4         N/A
* REED POINT   N/A       10   6  84 N/A        N/A
* ROSCOE HILL  N/A       11  -2  55 S7         N/A
$$

REGIONAL REPORTS...DAKOTAS
CITY           SKY/WX    TMP DP  RH WIND       PRES   REMARKS
WILLISTON      MOCLDY     9   1  70 SW7       30.14S WCI  -2
DICKINSON      PTCLDY    10   3  73 W13       30.11F WCI  -5
CROSBY         LGT SNOW  14  10  84 W15       30.10S WCI  -1
WATFORD CITY   CLEAR      9   3  76 SW10      30.12S WCI  -5
BISMARCK       CLEAR      3   0  87 W6        30.20F WCI  -8
GRAND FORKS    CLEAR      0  -6  75 SW6       30.17R WCI -12
FARGO          CLEAR      5  -2  72 SW7       30.21S WCI  -7
BUFFALO SD     PTCLDY    10   7  88 W12       30.08S WCI  -5
RAPID CITY     CLOUDY    12   9  88 CALM      30.19R
$$

REGIONAL REPORTS...WYOMING/IDAHO/WASHINGTON
CITY           SKY/WX    TMP DP  RH WIND       PRES   REMARKS
GILLETTE       CLOUDY    10   9  96 SW5       30.12F WCI   1
SHERIDAN       PTCLDY     5  -2  72 CALM      30.15R
CODY           PTCLDY    10   9  96 SW3       30.11R
YELLOWSTONE LA MOCLDY    -6  -9  87 CALM      29.99R
SALMON         CLEAR     19  14  81 E5        30.14R WCI  12
MULLAN PASS    CLEAR     16  -4  40 SE9       30.07S WCI   5
SAND POINT     CLEAR     23  14  68 N3        30.23R
SPOKANE        CLEAR     27   9  46 CALM      30.20R
$$

REGIONAL REPORTS...SASKATCHEWAN
CITY           SKY/WX    TMP DP  RH WIND       PRES   REMARKS
SWIFT CURRENT  LGT SNOW  16  14  92 W15       30.10R VSB 3    WCI   1

$$



USA.gov is the U.S. government's official web portal to all federal, state and local government web resources and services.